Other Public Products
Issued by NWS Grand Forks, ND

Home | Current Version | Previous Version | Graphics & Text | Print | Product List | Glossary On
Versions: 1 2 3 4 5 6 7 8 9 10 11 12 13 14 15 16 17 18 19 20 21 22 23 24 25 26 27 28 29 30 31 32 33 34 35 36 37 38 39 40 41 42 43 44 45 46 47 48 49 50
000
FPUS83 KFGF 271410
OPUFGF
PRAIRIE TO PINES WEATHER ROUNDUP
NATIONAL WEATHER SERVICE EASTERN NORTH DAKOTA/GRAND FORKS ND
900 AM CDT TUE JUN 27 2017

 **SATELLITE DATA USED TO AUGMENT SKY COVER AT AUTOMATED STATIONS**
 *****  WEATHER ACROSS EASTERN NORTH DAKOTA  *****

CITY           SKY/WX    TMP DP  RH WIND       PRES   REMARKS
GRAND FORKS    CLOUDY    67  46  47 S20G29    29.88F
GRAND FORKS AF FAIR      63  44  51 S15       29.88F
GRAND CITY NWS NOT AVBL
BUXTON         NOT AVBL
DEVILS LAKE    FAIR      63  45  51 S15       29.83F
FARGO          FAIR      64  44  48 S13       29.95F
WAHPETON ARPT  FAIR      63  43  48 S13       29.98F
$$

 *****  WEATHER ACROSS CENTRAL AND WESTERN NORTH DAKOTA  *****

CITY           SKY/WX    TMP DP  RH WIND       PRES   REMARKS
JAMESTOWN      FAIR      62  42  47 S16G28    29.87F
BISMARCK       FAIR      64  45  49 S20       29.78F
MINOT          FAIR      67  42  40 SE18G25   29.68F
MINOT AFB      FAIR      67  43  41 S21G26    29.67F
GARRISON         N/A     60  43  53 S14       29.73F
WILLISTON      FAIR      69  42  37 S13       29.64F
DICKINSON      FAIR      64  41  42 S20       29.69S
HETTINGER      FAIR      66  45  46 S18G25    29.73F
$$

 *****  OTHER OBSERVATIONS NORTHEAST NORTH DAKOTA  *****

CITY           SKY/WX    TMP DP  RH WIND       PRES   REMARKS
WALHALLA       NOT AVBL
LANGDON          N/A     61  46  59 S18       29.83F
CAVALIER       FAIR      63  45  51 S12       29.84F
GRAFTON        FAIR      64  46  52 S16G22    29.88F
CANDO          NOT AVBL
FORT TOTTEN      N/A     63  44  50 S12       29.95S
ROLLA            N/A     61  45  55 S17G24    29.78F
RUGBY          NOT AVBL
 ***** THE ABOVE OBSERVATIONS ARE NON NWS ARE NOT QUALITY
        CONTROLLED AND MAY MIS-REPORT RAIN FOR SNOW...
$$

 *****  OTHER OBSERVATIONS SOUTHEAST NORTH DAKOTA *****

CITY           SKY/WX    TMP DP  RH WIND       PRES   REMARKS
COOPERSTOWN    FAIR      64  43  45 S23G29    29.89F
VALLEY CITY    FAIR      63  45  51 S16G24    29.92F
OAKES          NOT AVBL
GWINNER        CLOUDY    66  45  45 S20G25    29.94F
BUFFALO        NOT AVBL
WYNDMERE       NOT AVBL
 ***** THE ABOVE OBSERVATIONS ARE NON NWS ARE NOT QUALITY
       CONTROLLED AND MAY MIS-REPORT RAIN FOR SNOW...
$$

  *****  WEATHER ACROSS NORTHERN MINNESOTA  *****

CITY           SKY/WX    TMP DP  RH WIND       PRES   REMARKS
FLAG ISLAND    FAIR      63  45  51 SW12G17   29.91F
WARROAD        FAIR      59  48  67 SW9       29.93
ROSEAU         FAIR      61  48  63 SW10      29.92F
HALLOCK        FAIR      61  46  59 S16       29.86F
THF RVR FALLS  FAIR      62  44  51 S13       29.94F
HALSTAD        NOT AVBL
FOSSTON        FAIR      61  45  55 S12G17    29.96F
BAUDETTE       FAIR      62  45  53 SW9       29.95F
WASKISH        CLOUDY    61  48  63 SW9       29.98F
CROOKSTON      FAIR      61  46  59 S16       29.93F
$$
  *****  WEATHER ACROSS CENTRAL AND WEST MINNESOTA  *****

CITY           SKY/WX    TMP DP  RH WIND       PRES   REMARKS
BEMIDJI        FAIR      62  45  54 S9        30.00F
PARK RAPIDS    FAIR      63  42  46 SW13      30.02S
WADENA         FAIR      63  46  55 S8        30.02F
DETROIT LAKES  FAIR      63  45  51 S12       30.00F
MOORHEAD       FAIR      63  43  48 S13       29.96F
FERGUS FALLS   FAIR      63  45  51 S14       29.99F
ELBOW LAKE     FAIR      63  46  52 S13       30.02F
MORRIS MN      FAIR      64  45  48 S14       30.02F
STAPLES        FAIR      63  45  51 S8        30.03F
WHEATON        FAIR      64  43  45 S12G17    30.02F
$$
  *****  WEATHER ELSEWHERE ACROSS MINNESOTA  *****

CITY           SKY/WX    TMP DP  RH WIND       PRES   REMARKS
DULUTH         FAIR      64  47  53 W8        30.04S
INTRNTL FALLS  FAIR      61  46  57 W6        29.98F
ELY            FAIR      61  46  59 W6        30.01F
CLOQUET        FAIR      63  43  48 W8        30.05S
BRAINERD       FAIR      61  47  59 S6        30.05F
HIBBING        FAIR      61  46  57 W6        30.03S
ALEXANDRIA     FAIR      64  44  48 S15       30.05F
SAINT CLOUD    FAIR      65  47  52 S9        30.07F
MINNEAPOLIS    FAIR      66  44  45 W8        30.10S
$$

  *****  WEATHER ACROSS SOUTH DAKOTA  *****

CITY           SKY/WX    TMP DP  RH WIND       PRES   REMARKS
SIOUX FALLS    PTSUNNY   63  48  58 S15       30.05F
BROOKINGS      FAIR      61  45  55 S13       30.03F
WATERTOWN      FAIR      55  46  71 SE8       30.00F
HURON          FAIR      59  46  62 S14       29.97F
SISSETON         N/A     68  44  42 S17G26    29.97F
ABERDEEN       FAIR      61  44  53 S20G28    29.93F
MITCHELL       FAIR      63  47  55 S14       30.00F
PIERRE         FAIR      65  51  60 S18       29.86F
MOBRIDGE       FAIR      66  47  50 S24G30    29.80F
RAPID CITY     FAIR      69  55  60 S28G33    29.77F
$$

  *****  SOME WEATHER IN NEARBY STATES *****

CITY           SKY/WX    TMP DP  RH WIND       PRES   REMARKS
GLASGOW MT     FAIR      72  41  32 SE5       29.59S
GREAT FALLS MT FAIR      65  50  58 SW15      29.76S
CHEYENNE WY    FAIR      63  53  70 SW9       30.01F
SCOTTSBLUFF NE FAIR      68  57  68 S14       29.91F
OMAHA NE       FAIR      65  53  65 SE8       30.11S
DES MOINES IA  FAIR      64  49  57 SE10      30.14F
DAVENPORT IA   FAIR      64  49  57 W7        30.17S
CHICAGO IL     FAIR      66  46  48 NW8       30.13S
EAU CLAIRE WI  FAIR      62  49  62 W7        30.10R
LA CROSSE WI   FAIR      66  49  54 S7        30.12S
$$

  *****  SOME NATIONAL WEATHER *****

CITY           SKY/WX    TMP DP  RH WIND       PRES   REMARKS
LA GUARDIA NY  PTSUNNY   68  59  73 VRB5      30.00S
RALEIGH NC     PTSUNNY   75  55  49 VRB6      30.08R
ATLANTA GA     FAIR      78  58  49 N10       30.11R
NEW ORLEANS LA PTSUNNY   81  72  74 E7        30.04R
OKLAHOMA CITY  PTSUNNY   75  66  73 S9        30.06S
ALBUQUERQUE NM FAIR      67  52  58 N6        30.21R
SALT LAKE CITY PTSUNNY   80  49  33 W7        29.94R
LOS ANGELES CA FAIR      67  60  78 SE3       29.87R
BOISE ID       FAIR      65  52  62 SW6       29.92R
SEATTLE WA     CLOUDY    56  49  77 S9        30.06S
$$

*** WEATHER ACROSS MANITOBA...SASKATCHEWAN AND ONTARIO ***
                ***ONTARIO***

CITY           SKY/WX    TMP DP  RH WIND       PRES   REMARKS
GERALDTON      CLOUDY    55  52  88 SW13      29.89F
THUNDER BAY    PTSUNNY   63  50  63 W5        29.97S
SIOUX LOOKOUT  MOSUNNY   64  48  55 W8        29.91F
TORONTO        MOSUNNY   61  52  72 W6        29.94S
BIG TROUT LK   CLOUDY    55  50  82 W6        29.69R
PICKLE LAKE    PTSUNNY   64  45  48 NW12      29.81F
DRYDEN         SUNNY     64  48  55 SW9       29.92F
KENORA         PTSUNNY   64  48  55 SW10G17   29.92F
$$
                *** MANITOBA***

CITY           SKY/WX    TMP DP  RH WIND       PRES   REMARKS
BRANDON        PTSUNNY   64  48  55 SE5       29.72F
DAUPHIN        SUNNY     66  45  45 SW23G31   29.64F
ISLAND LAKE    MOSUNNY   64  48  55 W8        29.72F
PILOT MOUND      N/A     59  45  58 S17G25      N/A
THE PAS        MOSUNNY   66  52  59 E13       29.63F
THOMPSON       PTSUNNY   52  43  71 NE16G24   29.80R
WINNIPEG       PTSUNNY   61  46  59 S15       29.81F
LYNN LAKE      MOSUNNY   54  45  71 E18G26    29.77F
CHURCHILL      MOSUNNY   45  37  76 NE9       29.95R
GILLAM         CLOUDY    46  43  87 NE14G22   29.81S
$$
                ***SASKATCHEWAN***

CITY           SKY/WX    TMP DP  RH WIND       PRES   REMARKS
ESTEVAN        PTSUNNY   66  46  48 S12       29.62S
KINDERSLEY     CLOUDY    61  55  82 NW21G31   29.52R
LLOYDMINSTER   PTSUNNY   55  54  94 NW28G35   29.53S
PRINCE ALBERT  CLOUDY    66  50  55 E13       29.47F
REGINA         MOSUNNY   66  48  52 SE15G23   29.55F
YORKTON        SUNNY     64  50  59 S12       29.59F
N. BATTLEFORD  MOSUNNY   59  50  72 W3        29.44S


USA.gov is the U.S. government's official web portal to all federal, state and local government web resources and services.